Peoria, IL

5:46 PM CST on February 27, 2017 (GMT -0600)
Greater Peoria Regional

Weather History for KPIA - January, 2014

Change the Weather History Date:

Sunday, January 5, 2014

  Actual Average Record
Temperature  
Mean Temperature 10 °F 25 °F  
Max Temperature 25 °F 33 °F 60 °F (1890)
Min Temperature -5 °F 17 °F -27 °F (1884)
Degree Days  
Heating Degree Days 55 40  
Month to date heating degree days 248 200  
Since 1 July heating degree days 2674 2478  
Cooling Degree Days 0 0  
Month to date cooling degree days 0 0  
Year to date cooling degree days 0 0  
Moisture  
Dew Point 8 °F    
Average Humidity 74    
Maximum Humidity 92    
Minimum Humidity 56    
Precipitation  
Precipitation 0.39 in 0.07 in 1.57 in (1955)
Month to date precipitation 0.76 0.33  
Year to date precipitation 0.76 0.33  
Snow  
Snow 5.50 in 0.20 in 6.40 in (1991)
Month to date snowfall 9.8 1.1  
Since 1 July snowfall 18.9 9.3  
Snow Depth 5.00 in    
Sea Level Pressure  
Sea Level Pressure 30.06 in    
Wind  
Wind Speed 14 mph (North)    
Max Wind Speed 23 mph    
Max Gust Speed 37 mph    
Visibility 2 miles    
Events Fog , Snow    
T = Trace of Precipitation, MM = Missing Value Source: NWS Daily Summary

Daily Weather History Graph

Daily Weather History Graph

Search for Another Location

Airport or City:

Trip Planner

Search our weather history database for the weather conditions in past years. The results will help you decide how hot, cold, wet, or windy it might be!

Date:

Astronomy

Jan. 05, 2014 Rise Set
Actual Time 7:22 AM CST 4:45 PM CST
Civil Twilight 6:52 AM CST 5:16 PM CST
Nautical Twilight 6:17 AM CST 5:50 PM CST
Astronomical Twilight 5:44 AM CST 6:23 PM CST
Moon 10:02 AM CST (1/5) 10:15 PM CST (1/5)
Length of Visible Light 10h 24m
Length of Day
9h 23m
Waxing Crescent, 25% of the Moon is Illuminated
Jan 5
Waxing Crescent
Jan 7
First Quarter
Jan 15
Full
Jan 23
Last Quarter
Jan 30
New

Hourly Weather History & Observations

Time (CST) Temp. Windchill Dew Point Humidity Pressure Visibility Wind Dir Wind Speed Gust Speed Precip Events Conditions
12:38 AM 23.0 °F 17.0 °F 19.9 °F 88% 30.00 in 0.8 mi NNW 4.6 mph - 0.02 in Snow Light Snow
12:54 AM 23.0 °F 15.8 °F 19.9 °F 88% 30.02 in 0.8 mi NNW 5.8 mph - 0.03 in Snow Light Snow
1:12 AM 23.0 °F 13.9 °F 19.9 °F 88% 30.00 in 1.0 mi NNW 8.1 mph - 0.02 in Snow Light Snow
1:25 AM 23.0 °F 15.8 °F 19.9 °F 88% 30.00 in 1.5 mi NNW 5.8 mph - 0.02 in Snow Light Snow
1:54 AM 23.0 °F 14.7 °F 19.9 °F 88% 30.03 in 1.2 mi North 6.9 mph - 0.03 in Snow Light Snow
2:36 AM 24.1 °F 16.0 °F 21.0 °F 88% 30.00 in 1.5 mi North 6.9 mph - 0.02 in Snow Light Snow
2:43 AM 24.1 °F 16.0 °F 21.0 °F 88% 30.00 in 1.2 mi NNE 6.9 mph - 0.02 in Snow Light Snow
2:54 AM 24.1 °F 15.2 °F 21.0 °F 88% 30.02 in 1.2 mi NNE 8.1 mph - 0.02 in Snow Light Snow
3:05 AM 25.0 °F 16.3 °F 21.0 °F 85% 29.99 in 1.8 mi NNE 8.1 mph - 0.00 in Snow Light Snow
3:13 AM 25.0 °F 16.3 °F 21.9 °F 88% 29.99 in 2.0 mi NNE 8.1 mph - 0.00 in Snow Light Snow
3:23 AM 24.1 °F 12.0 °F 19.9 °F 84% 29.99 in 2.0 mi NE 13.8 mph 19.6 mph 0.00 in Snow Light Snow
3:37 AM 23.0 °F 13.1 °F 19.0 °F 85% 30.00 in 1.8 mi NNE 9.2 mph 19.6 mph 0.01 in Snow Light Snow
3:54 AM 21.9 °F 12.5 °F 19.0 °F 89% 30.02 in 1.5 mi NNE 8.1 mph 18.4 mph 0.01 in Snow Light Snow
4:06 AM 21.9 °F 11.7 °F 18.0 °F 85% 29.99 in 1.5 mi NNE 9.2 mph - 0.00 in Snow Light Snow
4:24 AM 21.0 °F 11.4 °F 17.1 °F 85% 29.99 in 2.0 mi NNE 8.1 mph - 0.01 in Snow Light Snow
4:37 AM 19.9 °F 10.1 °F 17.1 °F 89% 29.99 in 1.5 mi NNE 8.1 mph - 0.01 in Snow Light Snow
4:45 AM 19.9 °F 9.3 °F 16.0 °F 85% 29.99 in 1.2 mi NNE 9.2 mph - 0.01 in Snow Light Snow
4:54 AM 19.9 °F 7.3 °F 16.0 °F 85% 30.02 in 1.8 mi NNE 12.7 mph 19.6 mph 0.01 in Snow Light Snow
5:14 AM 19.9 °F 9.3 °F 16.0 °F 85% 29.99 in 1.5 mi NNE 9.2 mph - 0.01 in Snow Light Snow
5:54 AM 19.0 °F 10.0 °F 15.1 °F 85% 30.02 in 1.8 mi North 6.9 mph - 0.02 in Snow Light Snow
6:00 AM 19.0 °F 8.2 °F 15.1 °F 85% 30.00 in 2.0 mi North 9.2 mph - 0.00 in Snow Light Snow
6:11 AM 19.0 °F 8.2 °F 14.0 °F 81% 30.00 in 1.8 mi NNE 9.2 mph - 0.00 in Snow Light Snow
6:54 AM 18.0 °F 4.8 °F 12.9 °F 81% 30.04 in 1.2 mi North 12.7 mph 19.6 mph 0.01 in Snow Light Snow
7:54 AM 16.0 °F 1.7 °F 12.0 °F 84% 30.03 in 1.2 mi NNE 13.8 mph 25.3 mph 0.02 in Snow Light Snow
8:36 AM 16.0 °F 6.3 °F 10.9 °F 81% 30.02 in 1.5 mi Variable 6.9 mph 18.4 mph 0.01 in Snow Light Snow
8:45 AM 16.0 °F 3.6 °F 10.9 °F 81% 30.03 in 1.2 mi North 10.4 mph 20.7 mph 0.02 in Snow Light Snow
8:54 AM 16.0 °F 5.3 °F 10.9 °F 81% 30.06 in 1.0 mi North 8.1 mph - 0.02 in Snow Light Snow
9:02 AM 15.1 °F 1.1 °F 10.9 °F 84% 30.03 in 0.5 mi North 12.7 mph 21.9 mph 0.00 in Fog , Snow Snow
9:15 AM 15.1 °F 1.8 °F 10.9 °F 84% 30.04 in 0.5 mi North 11.5 mph 19.6 mph 0.01 in Fog , Snow Snow
9:28 AM 15.1 °F 2.5 °F 10.9 °F 84% 30.05 in 0.2 mi North 10.4 mph 23.0 mph 0.02 in Fog , Snow Snow
9:45 AM 15.1 °F -0.6 °F 10.0 °F 80% 30.03 in 0.2 mi North 16.1 mph 23.0 mph 0.03 in Snow Heavy Snow
9:54 AM 14.0 °F -0.2 °F 10.0 °F 84% 30.05 in 0.2 mi North 12.7 mph 26.5 mph 0.04 in Fog , Snow Heavy Snow
10:39 AM 12.9 °F -3.4 °F 9.0 °F 84% 30.01 in 0.5 mi North 16.1 mph 24.2 mph 0.03 in Fog Light Freezing Fog
10:54 AM 12.9 °F -3.4 °F 8.1 °F 81% 30.05 in 0.5 mi North 16.1 mph 27.6 mph 0.04 in   Haze
11:06 AM 12.9 °F -3.4 °F 7.0 °F 77% 29.99 in 0.5 mi North 16.1 mph 29.9 mph N/A   Haze
11:24 AM 12.0 °F -4.0 °F 7.0 °F 80% 29.98 in 0.2 mi North 15.0 mph 34.5 mph 0.01 in Snow Heavy Snow
11:54 AM 12.0 °F -2.0 °F 7.0 °F 80% 30.02 in 0.2 mi North 11.5 mph 28.8 mph 0.02 in   Haze
11:58 AM 12.0 °F -4.5 °F 6.1 °F 77% 30.00 in 0.5 mi North 16.1 mph 29.9 mph N/A   Haze
12:40 PM 12.0 °F -2.0 °F 6.1 °F 77% 29.98 in 0.8 mi North 11.5 mph 26.5 mph 0.02 in Snow Snow
12:54 PM 12.0 °F -4.0 °F 5.0 °F 73% 30.01 in 0.8 mi North 15.0 mph 27.6 mph 0.02 in Snow Snow
1:20 PM 10.9 °F -5.9 °F 5.0 °F 77% 29.98 in 0.5 mi North 16.1 mph 24.2 mph 0.01 in Snow Snow
1:38 PM 10.9 °F -5.9 °F 5.0 °F 77% 29.98 in 0.5 mi North 16.1 mph 27.6 mph 0.01 in Snow Snow
1:54 PM 10.9 °F -6.5 °F 5.0 °F 77% 30.01 in 0.5 mi North 17.3 mph 28.8 mph 0.01 in Snow Snow
2:43 PM 10.0 °F -5.9 °F 5.0 °F 80% 30.00 in 0.5 mi North 13.8 mph 26.5 mph 0.02 in Snow Snow
2:54 PM 10.0 °F -7.6 °F 3.9 °F 76% 30.05 in 0.5 mi NNW 17.3 mph 25.3 mph 0.02 in Snow Snow
3:17 PM 10.0 °F -5.2 °F 3.9 °F 76% 30.02 in 0.5 mi North 12.7 mph 27.6 mph 0.01 in Snow Snow
3:54 PM 9.0 °F -8.5 °F 3.0 °F 77% 30.07 in 0.8 mi NNW 16.1 mph 31.1 mph 0.01 in Snow Snow
4:16 PM 9.0 °F -7.3 °F 1.9 °F 73% 30.05 in 1.0 mi NNW 13.8 mph 31.1 mph 0.01 in Snow Snow
4:54 PM 8.1 °F -9.0 °F -0.0 °F 70% 30.12 in 2.5 mi NNW 15.0 mph 33.4 mph 0.01 in Snow Snow
5:03 PM 8.1 °F -8.4 °F -2.0 °F 64% 30.08 in 6.0 mi NNW 13.8 mph 29.9 mph 0.00 in Snow Snow
5:54 PM 6.1 °F -12.8 °F -4.0 °F 63% 30.15 in 5.0 mi NNW 17.3 mph 35.7 mph 0.00 in Snow Blowing Snow
6:54 PM 3.9 °F -15.0 °F -7.1 °F 60% 30.19 in 8.0 mi NW 16.1 mph 29.9 mph N/A   Overcast
7:54 PM 1.9 °F -16.9 °F -9.9 °F 58% 30.22 in 8.0 mi NW 15.0 mph 25.3 mph N/A   Scattered Clouds
8:54 PM -0.0 °F -19.4 °F -9.9 °F 63% 30.25 in 7.0 mi NNW 15.0 mph 33.4 mph N/A   Overcast
9:54 PM -0.9 °F -19.9 °F -11.0 °F 62% 30.26 in 10.0 mi NW 13.8 mph 25.3 mph N/A   Clear
10:19 PM -2.0 °F -19.6 °F -11.0 °F 66% 30.22 in 9.0 mi NW 11.5 mph 24.2 mph N/A   Mostly Cloudy
10:41 PM -2.9 °F -25.0 °F -13.0 °F 62% 30.23 in 8.0 mi NW 18.4 mph 32.2 mph N/A   Scattered Clouds
10:54 PM -2.9 °F -24.4 °F -14.1 °F 59% 30.28 in 10.0 mi NW 17.3 mph 26.5 mph N/A   Clear
11:34 PM -4.0 °F -25.2 °F -14.1 °F 62% 30.23 in 10.0 mi WNW 16.1 mph 26.5 mph N/A   Mostly Cloudy
11:54 PM -5.1 °F -26.6 °F -17.0 °F 57% 30.29 in 7.0 mi NW 16.1 mph 31.1 mph N/A   Scattered Clouds